Location: Dal�� Lhota
(48.7500°N, 14.0167°E)
Time: 23:23:15
(UTC+00:00)

ISS - Pass Details

Date: 24 September 2020
Orbit: 417 x 420 km, 51.6° (Epoch: 25 October)

Event Time Altitude Azimuth Distance (km) Brightness Sun altitude
Rises 18:12:31 0° 264° (W) 2,365 1.5 -13.2°
Reaches altitude 10° 18:14:38 10° 269° (W) 1,502 0.3 -13.5°
Maximum altitude 18:17:58 58° 349° (N) 499 -3.3 -14.1°
Enters shadow 18:19:59 22° 63° (ENE) 991 -2.3 -14.4°
